Regional Weather Roundup
Issued by NWS

Home | Current Version | Previous Version | Text Only | Print | Product List | Glossary Off
Versions: 1 2 3 4 5 6 7 8 9 10 11 12 13 14 15 16 17 18 19 20 21 22 23 24 25 26 27 28 29 30 31 32 33 34 35 36 37 38 39 40 41 42 43 44 45 46 47 48 49 50

000
ASUS43 KFSD 260202
RWRSD

WEATHER ROUNDUP FOR SOUTH DAKOTA
NATIONAL WEATHER SERVICE SIOUX FALLS SD
900 PM CDT THU MAY 25 2017

NOTE: "FAIR" INDICATES FEW OR NO CLOUDS BELOW 12,000 FEET WITH NO
SIGNIFICANT WEATHER AND/OR OBSTRUCTIONS TO VISIBILITY.


SDZ001>005-009-010-012>017-260300-
NORTHWEST AND NORTH CENTRAL SOUTH DAKOTA

CITY           SKY/WX    TMP DP  RH WIND       PRES   REMARKS
BUFFALO          N/A     53  42  66 W17G26    29.65R
FAITH            N/A     57  43  59 NW20      29.67R
MOBRIDGE       PTCLDY    67  42  40 NW14      29.56R
$$

SDZ012>016-024>037-041>051-057-063-072>074-260300-
SOUTHWEST AND SOUTH CENTRAL SOUTH DAKOTA

CITY           SKY/WX    TMP DP  RH WIND       PRES   REMARKS
RAPID CTY ARPT CLOUDY    57  41  55 N35G43    29.70R
PIERRE         CLOUDY    68  36  30 W7        29.58R
CUSTER         PTCLDY    53  30  41 W8        29.78R
ELLSWORTH AFB  CLOUDY    56  42  57 NW26G38   29.71R
PHILIP         CLOUDY    66  40  38 NW28G35   29.64R
PINE RIDGE     CLOUDY    66  40  38 W5        29.67R
WINNER         FAIR      70  42  36 CALM      29.61R
$$

SDZ004>011-016>023-039-040-260300-
NORTHEAST SOUTH DAKOTA

CITY           SKY/WX    TMP DP  RH WIND       PRES   REMARKS
ABERDEEN       CLOUDY    66  44  45 CALM      29.54R
WATERTOWN      CLOUDY    58  54  86 S8        29.58R
BROOKINGS      CLEAR     61  53  75 S5        29.60R
SISSETON         N/A     63  56  78 S7        29.55R
$$

SDZ017-020-022-023-036>040-048>070-260300-
SOUTHEAST SOUTH DAKOTA

CITY           SKY/WX    TMP DP  RH WIND       PRES   REMARKS
SIOUX FALLS    PTCLDY    63  53  70 S8        29.59R
HURON          PTCLDY    66  54  65 S6        29.57R
MITCHELL       PTCLDY    66  55  67 S3        29.59R
YANKTON          N/A     69  52  54 CALM      29.58R
$$

ABBREVIATIONS USED IN REMARKS
   TC - TEMPERATURE IN CELSIUS
  WCI - WIND CHILL INDEX
   HX - HEAT INDEX
  VSB - VISIBILITY





USA.gov is the U.S. government's official web portal to all federal, state and local government web resources and services.